WB0RXX Weather Reports


Display with metric or nautical units.
time (UTC)temp
F
wind
direction
speed
MPH
gust
MPH
rain 1hr
in
rain 24hr
in
rain mn
in
humidity
%
barometer
mb
20260904120003 68 5 0.0 2.0 0.00 0.00 0.00 96 1011.2
20260904112004 68 351 0.0 0.0 0.00 0.00 0.00 96 1010.9
20260904111003 68 351 0.0 0.0 0.00 0.00 0.00 96 1010.7
20260904105006 69 4 1.0 5.0 0.00 0.00 0.00 95 1010.7
20260904104006 69 348 0.0 2.0 0.00 0.00 0.00 95 1010.8
20260904095004 70 11 3.0 5.0 0.00 0.00 0.00 93 1010.1
20260904093004 70 358 2.0 4.0 0.00 0.00 0.00 93 1010.0
20260904085005 71 175 0.0 0.0 0.00 0.00 0.00 93 1009.5
20260904084005 71 175 0.0 0.0 0.00 0.00 0.00 94 1009.3
20260904082007 71 175 0.0 0.0 0.00 0.00 0.00 93 1009.1
20260904081003 72 175 0.0 0.0 0.00 0.00 0.00 93 1009.3
20260904073003 72 175 0.0 0.0 0.00 0.00 0.00 93 1009.0
20260904054003 74 175 1.0 2.0 0.00 0.00 0.00 89 1008.6
20260904050007 75 175 0.0 0.0 0.00 0.00 0.00 87 1008.4
20260904043004 76 175 0.0 0.0 0.00 0.00 0.00 84 1008.2
20260904034004 77 175 0.0 0.0 0.00 0.00 0.00 81 1008.2
20260904020004 81 192 1.0 3.0 0.00 0.00 0.00 74 1007.5
20260904014003 82 192 0.0 1.0 0.00 0.00 0.00 74 1007.3
20260904013004 83 192 1.0 2.0 0.00 0.00 0.00 73 1007.1
20260904004002 87 190 2.0 5.0 0.00 0.00 0.00 69 1006.5
20260903232004 91 189 3.0 4.0 0.00 0.00 0.00 63 1006.2
20260903230005 91 203 4.0 5.0 0.00 0.00 0.00 61 1006.1
20260903225004 92 194 5.0 6.0 0.00 0.00 0.00 60 1006.1
20260903224004 92 188 6.0 8.0 0.00 0.00 0.00 59 1006.1
20260903221004 92 180 5.0 7.0 0.00 0.00 0.00 59 1005.9
20260903220003 92 183 3.0 5.0 0.00 0.00 0.00 58 1005.8
20260903214005 92 190 4.0 7.0 0.00 0.00 0.00 58 1005.6
20260903213005 92 175 3.0 6.0 0.00 0.00 0.00 59 1005.5
20260903205004 91 191 3.0 6.0 0.00 0.00 0.00 60 1005.8
20260903204005 91 177 7.0 10.0 0.00 0.00 0.00 59 1005.9
20260903202005 90 176 8.0 10.0 0.00 0.00 0.00 59 1006.2
20260903201003 90 186 6.0 10.0 0.00 0.00 0.00 61 1006.3
20260903200005 90 174 6.0 10.0 0.00 0.00 0.00 61 1006.3
20260903195005 90 181 8.0 10.0 0.00 0.00 0.00 61 1006.4
20260903194004 89 173 7.0 9.0 0.00 0.00 0.00 62 1006.5
20260903191003 87 173 6.0 11.0 0.00 0.00 0.00 66 1006.2
20260903183005 86 152 5.0 8.0 0.00 0.00 0.00 67 1006.6
20260903181005 84 194 1.0 4.0 0.00 0.00 0.00 71 1007.1
20260903175005 83 175 0.0 2.0 0.00 0.00 0.00 76 1008.0
20260903174004 82 136 1.0 3.0 0.00 0.00 0.00 75 1007.5
20260903171004 83 164 5.0 5.0 0.00 0.00 0.00 71 1008.2
20260903170004 83 178 5.0 7.0 0.00 0.00 0.00 72 1008.2
20260903163004 84 167 8.0 10.0 0.00 0.00 0.00 70 1007.9
20260903153003 80 168 7.0 9.0 0.00 0.00 0.00 73 1008.0
20260903151003 80 193 9.0 11.0 0.00 0.00 0.00 74 1008.3
20260903150004 79 166 7.0 7.0 0.00 0.00 0.00 75 1008.1
20260903141004 75 146 8.0 10.0 0.00 0.00 0.00 83 1008.3
20260903140004 75 148 3.0 3.0 0.00 0.00 0.00 85 1008.2
20260903134004 74 141 3.0 5.0 0.00 0.00 0.00 87 1008.4
20260903132004 73 133 3.0 6.0 0.00 0.00 0.00 91 1008.6
20260903131004 72 133 3.0 4.0 0.00 0.00 0.00 92 1008.6
20260903130003 72 124 2.0 6.0 0.00 0.00 0.00 92 1008.4